AirNav   TITAN Aviation Fuels
 
 1383 users online  

KMKV Marksville Municipal Airport
Marksville, Louisiana, USA

GOING TO MARKSVILLE?


FAA INFORMATION EFFECTIVE 16 JUNE 2022

Location

FAA Identifier: MKV
Lat/Long: 31-05-40.7520N 092-04-08.6110W
31-05.679200N 092-04.143517W
31.0946533,-92.0690586
(estimated)
Elevation: 78.3 ft. / 23.9 m (surveyed)
Variation: 02E (2005)
From city: 1 mile S of MARKSVILLE, LA
Time zone: UTC -5 (UTC -6 during Standard Time)
Zip code: 71350

Airport Operations

Airport use: Open to the public
Activation date: 04/1950
Control tower: no
ARTCC: HOUSTON CENTER
FSS: DE RIDDER FLIGHT SERVICE STATION
NOTAMs facility: DRI (NOTAM-D service available)
Attendance: MON-FRI 0700-1400
Wind indicator: lighted
Segmented circle: yes
Lights: ACTVT REIL RWY 4 & 22; MIRL RWY 04/22 PRESET LOW INTST; TO INCR INTST - CTAF.
Beacon: white-green (lighted land airport)
Operates sunset to sunrise.

Airport Communications

CTAF: 122.9
POLK APPROACH: 125.4
POLK DEPARTURE: 125.4

Airport Services

Fuel available: 100LL
100LL:FUEL AVBL 24/7 WITH CC.
Parking: tiedowns
Airframe service: NONE
Powerplant service: NONE
Bottled oxygen: NONE
Bulk oxygen: NONE

Runway Information

Runway 4/22

Dimensions: 3799 x 75 ft. / 1158 x 23 m
Surface: asphalt, in good condition
Weight bearing capacity: 
Single wheel: 19.0
Runway edge lights: medium intensity
RUNWAY 4  RUNWAY 22
Latitude: 31-05.456545N31-05.901845N
Longitude: 092-04.399667W092-03.887352W
Elevation: 73.9 ft.78.3 ft.
Traffic pattern: leftleft
Runway heading: 043 magnetic, 045 true223 magnetic, 225 true
Markings: nonprecision, in good conditionnonprecision, in good condition
Visual slope indicator: 2-light PAPI on left (3.00 degrees glide path)2-light PAPI on left (3.00 degrees glide path)
Runway end identifier lights: yesyes
Touchdown point: yes, no lightsyes, no lights
Obstructions: none26 ft. pole, marked, 671 ft. from runway, 58 ft. left of centerline, 18:1 slope to clear

Airport Ownership and Management from official FAA records

Ownership: Publicly-owned
Owner: AVOYELLES PARISH AIRPORT AUTHORITY
312 NORTH MAIN ST
MARKSVILLE, LA 71351
Phone 318-253-9208
Manager: TIM DUFOUR
312 NORTH MAIN ST, 312 MAIN ST
MARKSVILLE, LA 71351
Phone 225-266-4196

Airport Operational Statistics

Aircraft based on the field: 16
Single engine airplanes: 16
    
Aircraft operations: avg 28/day *
79% local general aviation
21% transient general aviation
* for 12-month period ending 21 September 2020

Additional Remarks

NE APN PAVEMENT FAILED.
AERIAL SPRAYING INVOF ARPT.
NE APN HLDG PSN NSTD.
FOR CD CTC POLK APCH AT 337-531-2352.

Instrument Procedures

NOTE: All procedures below are presented as PDF files. If you need a reader for these files, you should download the free Adobe Reader.

NOT FOR NAVIGATION. Please procure official charts for flight.
FAA instrument procedures published for use from 16 June 2022 at 0901Z to 14 July 2022 at 0900z.

 
IAPs - Instrument Approach Procedures
RNAV (GPS) RWY 04   download (196KB)
VOR-A   download (186KB)
NOTE: Special Take-Off Minimums/Departure Procedures apply   download (116KB)

Other nearby airports with instrument procedures:

2R6 - Bunkie Municipal Airport (12 nm SW)
KESF - Esler Regional Airport (21 nm NW)
KAEX - Alexandria International Airport (28 nm NW)
KOPL - St Landry Parish Airport-Ahart Field (32 nm S)
KHZR - False River Regional Airport (38 nm SE)
 
Loc | Ops | Rwys | IFR | FBO | Links
Com | Nav | Svcs | Stats | Notes
Area around KMKV (Marksville Municipal Airport)
 
Road maps at: MapQuest Bing Google
 
Aerial photo
WARNING: Photo may not be current or correct
Aerial photo of KMKV (Marksville Municipal Airport)
Do you have a better or more recent aerial photo of Marksville Municipal Airport that you would like to share? If so, please send us your photo.

 
Sectional chart

 
Airport distance calculator
Flying to Marksville Municipal Airport? Find the distance to fly.

From to KMKV

Sunrise and sunset
Times for 27-Jun-2022
 Local
(UTC-5)
 Zulu
(UTC)
Morning civil twilight05:4010:40
Sunrise06:0811:08
Sunset20:1501:15
Evening civil twilight20:4301:43

Current date and time
Zulu (UTC)  27-Jun-2022 23:04:42
Local (UTC-5)  27-Jun-2022 18:04:42
 
METAR
KESF 
21nm NW 
272253Z AUTO 06005KT 10SM CLR 29/23 A3004 RMK AO2 SLPNO T02940233
KAEX 
29nm NW 
272253Z 04008KT 10SM FEW033 SCT049 31/22 A3002 RMK AO2 SLP168 T03110222
KOPL 
32nm S 
272255Z AUTO 02012KT 10SM BKN033 30/23 A3003 RMK AO2 LTG DSNT E T03000228
KHZR 
38nm SE 
272235Z AUTO 01010KT 10SM BKN028 BKN034 29/23 A3004 RMK AO2 LTG DSNT E THRU S T02890234
KACP 
38nm SW 
272255Z AUTO 02007KT 360V060 10SM CLR 31/22 A3003 RMK AO2
K0R4 
40nm NE 
272230Z AUTO 36007KT 10SM SCT022 SCT029 SCT035 29/23 A3005 RMK AO2 T02870232
TAF
KAEX 
29nm NW 
271723Z 2718/2818 03010KT P6SM BKN020 BKN050 TEMPO 2718/2721 SCT025 BKN150 FM272100 03011G17KT P6SM VCTS SCT035CB BKN150 FM280100 06007KT P6SM FEW040 BKN200 FM281300 02007KT P6SM SCT250
NOTAMs
Click for the latest NOTAMs
NOTAMs are issued by the DoD/FAA and will open in a separate window not controlled by AirNav.

 

 
 

FBO, Fuel Providers, and Aircraft Ground Support

  
 Business Name 
 
 Contact 
 
 Services / Description 
 
Fuel Prices
 
Comments
  
Marksville Municipal Airport 318-240-3088
318-253-7291
[email]
Airport management, Aviation fuel, Aircraft parking (ramp or tiedown)

More info about Marksville Municipal Airport
Phillips 66
100LL
SS $6.38 
 Updated 16-Jun-2022
 
   write
SS=Self service
Update Fuel Prices
 

Would you like to see your business listed on this page?

 If your business provides an interesting product or service to pilots, flight crews, aircraft, or users of the Marksville Municipal Airport, you should consider listing it here.  To start the listing process, click on the button below
 
Add a business
 

Other Pages about Marksville Municipal Airport

Update a link
 
Copyright © AirNav, LLC. All rights reserved. Privacy Policy  Contact